Regional Weather Roundup
Issued by NWS State College, PA

Home | Current Version | Previous Version | Text Only | Print | Product List | Glossary Off
Versions: 1 2 3 4 5 6 7 8 9 10 11 12 13 14 15 16 17 18 19 20 21 22 23 24 25 26 27 28 29 30 31 32 33 34 35 36 37 38 39 40 41 42 43 44 45 46 47 48 49 50

000
ASUS41 KCTP 222003
RWRCTP

REGIONAL WEATHER ROUNDUP
NATIONAL WEATHER SERVICE STATE COLLEGE PA
400 PM EDT SAT JUL 22 2017

Note: "fair" indicates few or no clouds below 12,000 feet with no
significant weather and/or obstructions to visibility.

* = STATION THAT DOES NOT REPORT PRECIPITATION /E.G. RAIN...SNOW...ETC/
    THUNDER OR FOG.

PAZ002>004-007>009-013>016-020>023-029>032-222100-
WESTERN PENNSYLVANIA

CITY           SKY/WX    TMP DP  RH WIND       PRES   REMARKS
ERIE           CLOUDY    80  71  74 S6        29.78F
MEADVILLE      CLOUDY    75  72  90 SW7       29.83F
FRANKLIN*      CLOUDY    72  66  83 W9        29.85S
NEW CASTLE     LGT RAIN  76  72  87 W7        29.82F
BEAVER COUNTY  NOT AVBL
BUTLER*        CLOUDY    75  70  83 SW9       29.83F
PITTSBURGH INT CLOUDY    75  71  87 SW8       29.82F
PITTSBURGH     LGT RAIN  76  69  79 SW12      29.82F
INDIANA*       CLOUDY    75  72  88 SW10      29.86F
LATROBE        PTSUNNY   75  72  88 SW14G25   29.86F
WASHINGTON CO* CLOUDY    73  72  94 SW7       29.84F
$$

PAZ004>006-010>012-017>019-024>028-033>037-041-042-045-046-049>053-222100-
CENTRAL PENNSYLVANIA

CITY           SKY/WX    TMP DP  RH WIND       PRES   REMARKS
BRADFORD       CLOUDY    75  70  84 NE7       29.86F
DUBOIS         LGT RAIN  70  67  90 W12G20    29.83F FOG
CLEARFIELD     RAIN      71  71 100 S7        29.82F FOG
JOHNSTOWN      PTSUNNY   76  67  73 W14G29    29.88F
ALTOONA        CLOUDY    79  71  76 S12       29.84F
STATE COLLEGE  CLOUDY    73  72  94 SW5       29.82F
WILLIAMSPORT   LGT RAIN  79  73  82 SE3       29.79F
SELINSGROVE    CLOUDY    79  74  84 VRB7      29.79F
FT INDIANTOWN  TSTM      77  75  94 SW9       29.82R VSB 1/4
CAPITAL CITY   LGT RAIN  78  73  84 N9        29.80S
HARRISBURG     LGT RAIN  79  75  87 NW7       29.79S FOG
YORK           CLOUDY    80  74  81 SW9       29.81F
$$

PAZ038>040-043-044-047-048-054-055-060>062-067>071-222100-
EASTERN PENNSYLVANIA

CITY           SKY/WX    TMP DP  RH WIND       PRES   REMARKS
SCRANTON       CLOUDY    83  61  47 NW8       29.84F
MOUNT POCONO   PTSUNNY   80  64  58 SW9       29.89F
ALLENTOWN      PTSUNNY   89  66  46 CALM      29.80F
QUAKERTOWN*    MOCLDY    88  68  51 CALM      29.82F
READING        LGT RAIN  87  73  62 CALM      29.77F
LANCASTER      LGT RAIN  86  73  65 S14       29.78F
COATESVILLE    PTCLDY    84  72  65 VRB5      29.83F
POTTSTOWN      MOSUNNY   87  69  54 VRB3      29.80F
BLUE BELL      CLOUDY    88  72  58 CALM      29.81F
DOYLESTOWN     MOSUNNY   89  66  46 W8        29.80F
WILLOW GROVE   NOT AVBL
NORTH PHILA    PTSUNNY   92  68  45 NW8       29.79F HX  96
PHILADELPHIA   CLOUDY    92  66  42 VRB6      29.78F
$$




USA.gov is the U.S. government's official web portal to all federal, state and local government web resources and services.